Radiation Dose at Monitoring Post of Fukushima Daini Nuclear Power Station
Date,Time,MP-1(microSv/h),MP-2(microSv/h),MP-3(microSv/h),MP-4(microSv/h),MP-5(microSv/h),MP-6(microSv/h),MP-7(microSv/h),Wind Direction,Wind Velocity(m/s),Rain
2024/05/02,00:00,0.148,0.130,0.211,0.195,0.204,0.116,0.076,north-northeast,8.2,Yes
2024/05/02,00:10,0.147,0.129,0.210,0.195,0.204,0.115,0.075,north-northeast,8.7,No
2024/05/02,00:20,0.147,0.130,0.210,0.194,0.205,0.115,0.076,north,8.4,No
2024/05/02,00:30,0.146,0.131,0.210,0.194,0.206,0.116,0.075,north-northeast,9.2,Yes
2024/05/02,00:40,0.147,0.129,0.209,0.196,0.205,0.116,0.075,north-northeast,7.8,Yes
2024/05/02,00:50,0.147,0.129,0.212,0.194,0.205,0.116,0.076,north-northeast,6.4,Yes
2024/05/02,01:00,0.147,0.130,0.210,0.195,0.204,0.115,0.075,north-northeast,7.3,Yes
2024/05/02,01:10,0.148,0.131,0.210,0.195,0.204,0.117,0.076,north-northeast,7.5,Yes
2024/05/02,01:20,0.147,0.130,0.211,0.194,0.206,0.116,0.075,north-northeast,8.9,Yes
2024/05/02,01:30,0.147,0.130,0.209,0.195,0.204,0.116,0.075,north-northeast,7.5,Yes
2024/05/02,01:40,0.148,0.130,0.210,0.194,0.206,0.116,0.075,north,8.1,Yes
2024/05/02,01:50,0.147,0.131,0.210,0.195,0.204,0.116,0.075,north-northeast,8.2,Yes
2024/05/02,02:00,0.148,0.130,0.209,0.194,0.206,0.115,0.075,north-northeast,10.1,Yes
2024/05/02,02:10,0.148,0.130,0.210,0.195,0.206,0.117,0.075,north,8.5,Yes
2024/05/02,02:20,0.147,0.130,0.210,0.195,0.205,0.116,0.075,north,8.1,Yes
2024/05/02,02:30,0.147,0.130,0.209,0.194,0.206,0.115,0.075,north,7.3,Yes
2024/05/02,02:40,0.147,0.130,0.211,0.194,0.204,0.116,0.075,north,7.6,No
2024/05/02,02:50,0.149,0.130,0.209,0.194,0.205,0.115,0.075,north,7.3,No
2024/05/02,03:00,0.147,0.130,0.210,0.195,0.205,0.115,0.075,north,8.1,Yes
2024/05/02,03:10,0.148,0.130,0.210,0.195,0.206,0.116,0.075,north,8.4,Yes
2024/05/02,03:20,0.147,0.130,0.210,0.195,0.206,0.117,0.076,north,9.0,No
2024/05/02,03:30,0.147,0.131,0.210,0.195,0.204,0.115,0.076,north-northeast,9.2,No
2024/05/02,03:40,0.147,0.129,0.209,0.194,0.205,0.116,0.076,north,8.6,No
2024/05/02,03:50,0.147,0.130,0.210,0.194,0.205,0.117,0.076,north,6.9,No
2024/05/02,04:00,0.147,0.130,0.211,0.195,0.205,0.116,0.076,north,7.3,Yes
2024/05/02,04:10,0.148,0.130,0.209,0.194,0.204,0.116,0.075,north,7.0,Yes
2024/05/02,04:20,0.148,0.129,0.210,0.196,0.204,0.116,0.075,north,7.6,Yes
2024/05/02,04:30,0.148,0.130,0.210,0.195,0.206,0.116,0.076,north-northwest,7.2,No
2024/05/02,04:40,0.148,0.130,0.209,0.195,0.206,0.116,0.075,north-northwest,9.2,No
2024/05/02,04:50,0.147,0.131,0.211,0.196,0.206,0.116,0.076,north-northwest,7.3,Yes
2024/05/02,05:00,0.148,0.130,0.210,0.195,0.205,0.116,0.076,north-northwest,7.9,Yes
2024/05/02,05:10,0.147,0.130,0.210,0.196,0.204,0.117,0.076,north-northwest,8.6,Yes
2024/05/02,05:20,0.148,0.130,0.211,0.194,0.206,0.117,0.076,north-northwest,6.9,Yes
2024/05/02,05:30,0.148,0.130,0.210,0.194,0.205,0.116,0.075,north-northwest,8.6,Yes
2024/05/02,05:40,0.148,0.131,0.210,0.196,0.207,0.117,0.076,north-northwest,8.9,Yes
2024/05/02,05:50,0.147,0.130,0.211,0.194,0.205,0.116,0.076,north-northwest,8.5,Yes
2024/05/02,06:00,0.148,0.131,0.211,0.195,0.206,0.117,0.076,north-northwest,8.1,Yes
2024/05/02,06:10,0.149,0.131,0.211,0.196,0.206,0.117,0.076,northwest,8.1,Yes
2024/05/02,06:20,0.148,0.130,0.210,0.194,0.205,0.116,0.076,north-northwest,7.9,Yes
2024/05/02,06:30,0.148,0.131,0.210,0.196,0.205,0.116,0.076,north-northwest,8.1,Yes
2024/05/02,06:40,0.148,0.130,0.211,0.195,0.206,0.117,0.076,north-northwest,8.5,No
2024/05/02,06:50,0.148,0.130,0.211,0.195,0.205,0.116,0.076,north-northwest,7.2,No
2024/05/02,07:00,0.148,0.130,0.211,0.195,0.206,0.116,0.075,north-northwest,7.2,No
2024/05/02,07:10,0.148,0.130,0.211,0.194,0.205,0.117,0.076,north-northwest,7.5,No
2024/05/02,07:20,0.148,0.131,0.210,0.196,0.207,0.116,0.075,north-northwest,7.2,Yes
2024/05/02,07:30,0.147,0.130,0.211,0.194,0.205,0.116,0.076,north-northwest,5.8,Yes
2024/05/02,07:40,0.147,0.130,0.211,0.194,0.205,0.117,0.076,north-northwest,7.9,No
2024/05/02,07:50,0.148,0.131,0.210,0.194,0.205,0.116,0.076,north-northwest,7.4,Yes
2024/05/02,08:00,0.148,0.130,0.211,0.195,0.203,0.116,0.077,north-northwest,7.0,No
2024/05/02,08:10,0.148,0.130,0.209,0.195,0.206,0.116,0.075,north-northwest,7.4,Yes
2024/05/02,08:20,0.147,0.129,0.210,0.194,0.205,0.116,0.076,north-northwest,7.5,Yes
2024/05/02,08:30,0.149,0.130,0.209,0.196,0.207,0.117,0.076,north-northwest,8.1,Yes
2024/05/02,08:40,0.148,0.131,0.211,0.195,0.206,0.117,0.076,north-northwest,7.6,Yes
2024/05/02,08:50,0.149,0.130,0.210,0.195,0.206,0.116,0.075,north,6.2,No
2024/05/02,09:00,0.148,0.130,0.210,0.195,0.205,0.116,0.076,north,7.2,No
2024/05/02,09:10,0.147,0.129,0.210,0.195,0.206,0.115,0.076,north,7.6,No
2024/05/02,09:20,0.147,0.131,0.209,0.194,0.204,0.116,0.075,north,8.9,No
2024/05/02,09:30,0.147,0.129,0.209,0.195,0.206,0.115,0.075,north,7.0,No
2024/05/02,09:40,0.147,0.130,0.211,0.194,0.205,0.116,0.075,north,6.9,No
2024/05/02,09:50,0.147,0.129,0.210,0.194,0.204,0.116,0.075,north,7.7,No
2024/05/02,10:00,0.147,0.129,0.208,0.195,0.204,0.115,0.076,north,8.6,No
2024/05/02,10:10,0.147,0.130,0.211,0.193,0.204,0.116,0.075,north,8.5,No
2024/05/02,10:20,0.148,0.129,0.210,0.193,0.207,0.116,0.075,north,9.2,No
2024/05/02,10:30,0.147,0.130,0.209,0.196,0.204,0.116,0.076,north,7.5,No
2024/05/02,10:40,0.147,0.129,0.211,0.194,0.207,0.116,0.075,north,6.3,No
2024/05/02,10:50,0.147,0.130,0.210,0.194,0.205,0.117,0.075,north,7.4,No
2024/05/02,11:00,0.148,0.131,0.210,0.195,0.205,0.116,0.075,north,8.5,No
2024/05/02,11:10,0.149,0.129,0.212,0.195,0.207,0.116,0.075,north,7.5,No
2024/05/02,11:20,0.147,0.131,0.212,0.194,0.204,0.117,0.076,north,7.0,No
2024/05/02,11:30,0.148,0.130,0.210,0.195,0.206,0.116,0.074,north-northeast,9.3,No
2024/05/02,11:40,0.147,0.130,0.211,0.196,0.205,0.116,0.076,north,7.2,No
2024/05/02,11:50,0.147,0.131,0.212,0.194,0.205,0.116,0.076,north,7.7,No
2024/05/02,12:00,0.148,0.129,0.210,0.195,0.207,0.115,0.076,north,5.9,No
2024/05/02,12:10,0.147,0.130,0.211,0.196,0.205,0.116,0.076,north,6.2,No
2024/05/02,12:20,0.148,0.131,0.212,0.196,0.207,0.116,0.076,north,6.8,No
2024/05/02,12:30,0.147,0.130,0.211,0.195,0.207,0.116,0.076,north,7.0,No
2024/05/02,12:40,0.147,0.131,0.209,0.197,0.205,0.115,0.075,north-northeast,6.4,No
2024/05/02,12:50,0.149,0.129,0.213,0.196,0.207,0.116,0.075,north-northeast,6.4,No
2024/05/02,13:00,0.147,0.130,0.212,0.195,0.205,0.116,0.075,north,5.1,No
2024/05/02,13:10,0.147,0.131,0.210,0.195,0.205,0.116,0.076,north,4.2,No
2024/05/02,13:20,0.149,0.130,0.213,0.197,0.206,0.116,0.076,north,5.1,No
2024/05/02,13:30,0.147,0.130,0.211,0.196,0.204,0.117,0.074,north,6.7,No
2024/05/02,13:40,0.149,0.131,0.210,0.194,0.207,0.116,0.076,north,6.6,No
2024/05/02,13:50,0.149,0.130,0.211,0.195,0.206,0.115,0.076,north,6.5,No
2024/05/02,14:00,0.147,0.130,0.214,0.197,0.205,0.116,0.075,north,5.0,No
2024/05/02,14:10,0.149,0.129,0.211,0.196,0.207,0.116,0.076,north-northeast,5.9,No
2024/05/02,14:20,0.147,0.129,0.210,0.194,0.206,0.116,0.076,north,6.3,No
2024/05/02,14:30,0.147,0.130,0.213,0.197,0.206,0.116,0.075,north-northeast,5.9,No
2024/05/02,14:40,0.148,0.131,0.213,0.196,0.207,0.116,0.076,north-northeast,6.3,No
2024/05/02,14:50,0.148,0.130,0.211,0.195,0.205,0.117,0.076,northeast,6.3,No
2024/05/02,15:00,0.149,0.130,0.213,0.196,0.207,0.116,0.075,north-northeast,6.3,No
2024/05/02,15:10,0.149,0.130,0.212,0.197,0.208,0.116,0.076,north-northeast,5.6,No
2024/05/02,15:20,0.146,0.131,0.211,0.196,0.205,0.117,0.076,northeast,4.3,No
2024/05/02,15:30,0.150,0.131,0.212,0.198,0.205,0.117,0.075,northeast,5.1,No
2024/05/02,15:40,0.148,0.130,0.212,0.198,0.207,0.116,0.076,north-northeast,5.5,No
2024/05/02,15:50,0.148,0.131,0.214,0.197,0.205,0.116,0.075,north-northeast,4.1,No
2024/05/02,16:00,0.149,0.130,0.212,0.198,0.207,0.117,0.075,north-northeast,4.5,No
2024/05/02,16:10,0.147,0.131,0.214,0.197,0.207,0.115,0.076,north-northeast,3.5,No
2024/05/02,16:20,0.149,0.131,0.213,0.199,0.206,0.116,0.076,northeast,3.5,No
2024/05/02,16:30,0.147,0.131,0.213,0.197,0.206,0.117,0.075,north-northeast,2.7,No
2024/05/02,16:40,0.149,0.132,0.213,0.199,0.207,0.116,0.076,north-northeast,3.6,No
2024/05/02,16:50,0.148,0.130,0.212,0.199,0.204,0.117,0.075,north-northeast,3.2,No
2024/05/02,17:00,0.149,0.131,0.215,0.198,0.207,0.116,0.076,east-northeast,2.1,No
2024/05/02,17:10,0.149,0.131,0.212,0.199,0.207,0.117,0.076,northeast,3.0,No
2024/05/02,17:20,0.150,0.131,0.214,0.197,0.206,0.116,0.075,northeast,2.8,No
2024/05/02,17:30,0.148,0.130,0.213,0.198,0.208,0.116,0.076,northeast,1.8,No
2024/05/02,17:40,0.150,0.131,0.213,0.198,0.205,0.116,0.075,northeast,1.6,No
2024/05/02,17:50,0.149,0.132,0.213,0.198,0.209,0.117,0.076,northeast,2.1,No
2024/05/02,18:00,0.148,0.130,0.213,0.198,0.206,0.116,0.076,northeast,2.0,No
2024/05/02,18:10,0.149,0.131,0.213,0.197,0.208,0.116,0.076,east-northeast,1.7,No
2024/05/02,18:20,0.148,0.131,0.212,0.197,0.206,0.116,0.076,northeast,1.2,No
2024/05/02,18:30,0.148,0.130,0.213,0.197,0.208,0.116,0.075,northeast,0.7,No
2024/05/02,18:40,0.149,0.131,0.213,0.198,0.207,0.116,0.076,east,1.0,No
2024/05/02,18:50,0.149,0.131,0.212,0.198,0.206,0.117,0.076,east,1.3,No
2024/05/02,19:00,0.148,0.132,0.213,0.197,0.208,0.117,0.076,east-southeast,0.9,No
2024/05/02,19:10,0.149,0.131,0.213,0.198,0.207,0.116,0.076,east,1.0,No
2024/05/02,19:20,0.149,0.131,0.213,0.198,0.208,0.116,0.076,east-northeast,0.6,No
2024/05/02,19:30,0.147,0.131,0.212,0.197,0.207,0.117,0.075,-,CALM,No
2024/05/02,19:40,0.149,0.130,0.214,0.198,0.208,0.117,0.076,-,CALM,No
2024/05/02,19:50,0.148,0.131,0.214,0.197,0.207,0.117,0.076,-,CALM,No
2024/05/02,20:00,0.149,0.131,0.213,0.198,0.206,0.116,0.076,southwest,0.6,No
2024/05/02,20:10,0.148,0.131,0.213,0.197,0.208,0.117,0.075,southwest,0.8,No
2024/05/02,20:20,0.149,0.130,0.213,0.198,0.207,0.117,0.076,-,CALM,No
2024/05/02,20:30,0.149,0.131,0.214,0.198,0.207,0.117,0.076,-,CALM,No
2024/05/02,20:40,0.149,0.131,0.214,0.198,0.209,0.117,0.075,south,1.0,No
2024/05/02,20:50,0.147,0.131,0.214,0.198,0.206,0.117,0.076,south,1.0,No
2024/05/02,21:00,0.149,0.131,0.213,0.196,0.207,0.117,0.076,south,1.4,No
2024/05/02,21:10,0.149,0.131,0.213,0.197,0.207,0.117,0.076,south,1.6,No
2024/05/02,21:20,0.149,0.130,0.213,0.197,0.206,0.117,0.076,south-southwest,2.0,No
2024/05/02,21:30,0.149,0.131,0.213,0.197,0.206,0.117,0.076,south-southwest,2.1,No
2024/05/02,21:40,0.149,0.131,0.213,0.197,0.207,0.117,0.075,south-southwest,2.2,No
2024/05/02,21:50,0.149,0.130,0.213,0.197,0.206,0.117,0.076,south-southwest,2.9,No
2024/05/02,22:00,0.148,0.131,0.214,0.198,0.207,0.116,0.076,south-southwest,2.6,No
2024/05/02,22:10,0.149,0.132,0.213,0.198,0.207,0.116,0.077,south-southwest,2.9,No
2024/05/02,22:20,0.149,0.131,0.212,0.197,0.206,0.117,0.075,south-southwest,3.2,No
2024/05/02,22:30,0.149,0.131,0.213,0.198,0.207,0.117,0.076,south-southwest,3.5,No
2024/05/02,22:40,0.149,0.131,0.214,0.198,0.207,0.117,0.076,south-southwest,3.5,No
2024/05/02,22:50,0.148,0.131,0.213,0.199,0.207,0.118,0.077,south-southwest,3.1,No
2024/05/02,23:00,0.150,0.131,0.213,0.198,0.206,0.118,0.076,south-southwest,3.6,No
2024/05/02,23:10,0.148,0.131,0.213,0.197,0.207,0.118,0.076,south,3.7,No
2024/05/02,23:20,0.149,0.131,0.212,0.199,0.207,0.117,0.076,south-southwest,4.5,No
2024/05/02,23:30,0.150,0.131,0.212,0.198,0.207,0.117,0.076,south-southwest,4.3,No
2024/05/02,23:40,0.149,0.130,0.213,0.197,0.206,0.117,0.076,south-southwest,4.6,No
2024/05/02,23:50,0.149,0.131,0.214,0.198,0.209,0.117,0.076,south-southwest,5.1,No
